OPS 4682 DEB, 59150

Orbit data source: Space-Track

OPS 4682 DEB, 59150 is space debris in LEO originally from a launch on Sat, 03 Apr 1965 UTC launched from the Air Force Western Test Range (AFWTR). Debris objects in space refer to the collection of defunct objects orbiting the Earth. Examples of debris include non-operational satellites, rocket bodies, and fragments generated from explosions, collisions, or faulty payload assembly.

Loading next visibility...
Identifier
59150, 1965-027HS
Orbit
LEO
Country
Flag of USUS
Related business
Manufacturer
Unknown
Mission
Spacecraft
Bus & Motor
Unknown
Mass
Unknown
Launch date (UTC)
1965-04-03 (61 years ago)
Launch vehicle
Unknown
Launch site
Air Force Western Test Range (AFWTR)
Object type
Payload
Rocket body
Debris
Shape & HBR
Unknown
Radar Cross Section
Medium (>0.1 m² and <1 m²)

Expand to show TLE details & history
Last TLE update: 5 days ago

TLE from 5 days ago
0 OPS 4682 DEB
1 59150U 65027HS  26203.43529192  .00000830  00000-0  27747-2 0  9998
2 59150  90.2421   5.0011 0024742 265.0527  94.7770 12.98918906508586
Epoch: 2026-07-22T10:26Z
TLE epoch observation values (Epoch: 2026-07-22T10:26:49.221Z)
Latitude
-0.00002°
Longitude
-91.89466°
Altitude
1,270.829 km
Speed
7.219 km/s
True Right ascension
00h 20m 00s
True Declination
0° 00' 00"
Sunlit
Object was in daylight at epoch
Visualization orbit readout
Latitude
Unknown
Longitude
Unknown
Altitude
Unknown
Speed
Unknown
Apparent Right ascension
Unknown
Apparent Declination
Unknown
Sunlit
N/A
Visualization observer readout
Local Sidereal Time
21:09:44
Azimuth
Unknown
Elevation
Unknown
Doppler factor
Unknown
Orbital elements
Apogee altitude
1,282.361 km
Perigee altitude
1,244.547 km
Semi-major axis
7,641.591 km
Eccentricity
0.00247
Inclination
90.2421°
RAAN
5.0011°
Arg. of periapsis
265.0527°
True anomaly
95.05946°
Mean anomaly
94.777°
Eccentric anomaly
94.91824°
Mean motion
3.24913 °/min
Orbital period
110.8 mins
BSTAR
0.0027747
Loading maneuver chart data...
Computing Atmospheric mass density...
Loading historical data...
Loading historical data...
Loading historical data...
Loading historical data...
Loading historical data...
Loading historical data...
Loading historical data...

Documentation

Showing up to 5 results
|